N7BDR Weather Reports


Display with metric or nautical units.
time (UTC)temp
F
wind
direction
speed
MPH
gust
MPH
rain 1hr
in
rain 24hr
in
rain mn
in
humidity
%
barometer
mb
20260508030434 66 293 0.0 0.0 0.00 0.00 0.00 35 1008.1
20260508025300 66 309 0.0 0.0 0.00 0.00 0.00 35 1008.1
20260508024804 67 321 0.0 0.0 0.00 0.00 0.00 33 1008.1
20260508024311 68 321 0.0 0.0 0.00 0.00 0.00 33 1008.1
20260508023812 69 322 0.0 0.0 0.00 0.00 0.00 30 1008.0
20260508022630 71 322 0.0 0.0 0.00 0.00 0.00 27 1008.0
20260508021514 72 322 0.0 0.0 0.00 0.00 0.00 25 1008.0
20260508021010 73 322 0.0 0.0 0.00 0.00 0.00 26 1008.0
20260508020500 73 322 0.0 2.0 0.00 0.00 0.00 25 1007.9
20260508015955 73 322 0.0 2.0 0.00 0.00 0.00 24 1007.9
20260508015454 74 326 0.0 3.0 0.00 0.00 0.00 24 1007.9
20260508014956 74 334 0.0 3.0 0.00 0.00 0.00 24 1007.8
20260508014448 74 325 0.0 3.0 0.00 0.00 0.00 23 1007.9
20260508013939 74 322 0.0 3.0 0.00 0.00 0.00 23 1007.9
20260508013424 74 317 1.0 3.0 0.00 0.00 0.00 23 1007.9
20260508012306 75 332 0.0 2.0 0.00 0.00 0.00 23 1008.0
20260508011758 75 322 0.0 3.0 0.00 0.00 0.00 23 1007.9
20260508010629 75 312 0.0 0.0 0.00 0.00 0.00 23 1008.0
20260508005509 75 331 0.0 3.0 0.00 0.00 0.00 22 1008.0
20260508003741 74 327 0.0 2.0 0.00 0.00 0.00 24 1008.2
20260508003238 74 325 0.0 0.0 0.00 0.00 0.00 24 1008.2
20260508002133 74 322 0.0 4.0 0.00 0.00 0.00 23 1008.5
20260508001640 75 333 0.0 1.0 0.00 0.00 0.00 22 1008.4
20260508001130 75 299 0.0 0.0 0.00 0.00 0.00 23 1008.5
20260508000625 75 324 0.0 0.0 0.00 0.00 0.00 23 1008.5
20260508000111 75 333 0.0 4.0 0.00 0.00 0.00 23 1008.6
20260507235610 75 323 0.0 3.0 0.00 0.00 0.00 23 1008.6
20260507235106 75 323 0.0 2.0 0.00 0.00 0.00 22 1008.6
20260507234552 75 309 0.0 1.0 0.00 0.00 0.00 23 1008.8
20260507234059 75 289 1.0 0.0 0.00 0.00 0.00 22 1008.9
20260507232933 75 350 2.0 8.0 0.00 0.00 0.00 21 1008.9
20260507231823 77 337 1.0 8.0 0.00 0.00 0.00 21 1009.1
20260507231305 76 257 1.0 8.0 0.00 0.00 0.00 23 1009.1
20260507230757 76 348 3.0 8.0 0.00 0.00 0.00 21 1009.2
20260507230258 76 327 2.0 8.0 0.00 0.00 0.00 22 1009.4
20260507225749 76 334 1.0 6.0 0.00 0.00 0.00 22 1009.5
20260507225241 75 318 2.0 8.0 0.00 0.00 0.00 23 1009.6
20260507224727 76 336 1.0 8.0 0.00 0.00 0.00 22 1009.7
20260507224231 76 324 2.0 8.0 0.00 0.00 0.00 22 1009.8
20260507223727 75 339 3.0 8.0 0.00 0.00 0.00 22 1009.9
20260507223236 76 328 1.0 8.0 0.00 0.00 0.00 22 1010.0
20260507222732 76 314 1.0 8.0 0.00 0.00 0.00 23 1010.1
20260507222238 75 325 2.0 8.0 0.00 0.00 0.00 23 1010.2
20260507221730 75 317 1.0 8.0 0.00 0.00 0.00 23 1010.2
20260507221219 75 296 1.0 8.0 0.00 0.00 0.00 23 1010.3
20260507220119 74 327 3.0 8.0 0.00 0.00 0.00 24 1010.4
20260507215611 74 327 3.0 8.0 0.00 0.00 0.00 23 1010.5
20260507215110 75 322 3.0 8.0 0.00 0.00 0.00 23 1010.6
20260507213957 75 322 2.0 8.0 0.00 0.00 0.00 23 1010.7
20260507213447 75 321 2.0 12.0 0.00 0.00 0.00 24 1010.9
20260507212955 75 342 3.0 12.0 0.00 0.00 0.00 23 1011.0
20260507212453 75 329 4.0 12.0 0.00 0.00 0.00 23 1011.0
20260507211945 75 342 2.0 12.0 0.00 0.00 0.00 22 1011.2
20260507210808 75 332 2.0 9.0 0.00 0.00 0.00 21 1011.4
20260507210301 76 310 1.0 9.0 0.00 0.00 0.00 21 1011.4
20260507205746 76 343 1.0 8.0 0.00 0.00 0.00 21 1011.5
20260507205230 75 324 0.0 4.0 0.00 0.00 0.00 21 1011.6
20260507204737 76 49 0.0 5.0 0.00 0.00 0.00 20 1011.6
20260507204226 76 324 1.0 5.0 0.00 0.00 0.00 20 1011.8
20260507202427 75 329 0.0 1.0 0.00 0.00 0.00 21 1012.0
20260507201935 75 221 1.0 1.0 0.00 0.00 0.00 21 1012.2
20260507201415 75 293 1.0 5.0 0.00 0.00 0.00 22 1012.3
20260507200858 74 306 0.0 5.0 0.00 0.00 0.00 23 1012.3
20260507200344 74 326 1.0 5.0 0.00 0.00 0.00 21 1012.4
20260507195844 74 259 2.0 10.0 0.00 0.00 0.00 21 1012.5
20260507195351 74 269 3.0 10.0 0.00 0.00 0.00 22 1012.5
20260507194843 74 275 2.0 10.0 0.00 0.00 0.00 22 1012.6
20260507193034 72 262 2.0 5.0 0.00 0.00 0.00 22 1012.8
20260507192544 73 278 2.0 6.0 0.00 0.00 0.00 22 1013.0
20260507192041 73 220 2.0 6.0 0.00 0.00 0.00 23 1013.0
20260507190920 72 251 2.0 9.0 0.00 0.00 0.00 23 1013.2
20260507190407 72 266 3.0 9.0 0.00 0.00 0.00 23 1013.3
20260507185859 72 168 4.0 12.0 0.00 0.00 0.00 23 1013.4
20260507185349 71 204 4.0 12.0 0.00 0.00 0.00 23 1013.4
20260507184837 71 228 4.0 13.0 0.00 0.00 0.00 24 1013.4
20260507184321 70 243 6.0 13.0 0.00 0.00 0.00 23 1013.4
20260507183222 71 196 4.0 15.0 0.00 0.00 0.00 24 1013.5
20260507182713 71 225 5.0 18.0 0.00 0.00 0.00 23 1013.7
20260507181543 68 162 5.0 18.0 0.00 0.00 0.00 25 1013.8
20260507181029 67 185 5.0 18.0 0.00 0.00 0.00 24 1013.8
20260507180517 67 277 6.0 17.0 0.00 0.00 0.00 24 1013.8
20260507180021 67 251 8.0 17.0 0.00 0.00 0.00 24 1013.8
20260507174839 67 171 7.0 22.0 0.00 0.00 0.00 23 1013.9
20260507174343 67 154 7.0 22.0 0.00 0.00 0.00 23 1014.0
20260507173850 66 149 8.0 22.0 0.00 0.00 0.00 24 1014.1
20260507172035 65 245 8.0 19.0 0.00 0.00 0.00 24 1014.2
20260507171519 65 236 7.0 17.0 0.00 0.00 0.00 24 1014.3
20260507171000 64 182 7.0 24.0 0.00 0.00 0.00 24 1014.3
20260507170509 64 166 7.0 24.0 0.00 0.00 0.00 25 1014.3
20260507165345 63 275 7.0 24.0 0.00 0.00 0.00 26 1014.4
20260507164845 63 166 8.0 21.0 0.00 0.00 0.00 25 1014.5
20260507164341 63 171 8.0 21.0 0.00 0.00 0.00 25 1014.6
20260507163848 64 247 7.0 21.0 0.00 0.00 0.00 25 1014.6
20260507163338 63 270 8.0 21.0 0.00 0.00 0.00 25 1014.5
20260507162828 63 206 7.0 21.0 0.00 0.00 0.00 25 1014.6
20260507162330 62 192 7.0 21.0 0.00 0.00 0.00 27 1014.7
20260507161819 61 173 7.0 21.0 0.00 0.00 0.00 26 1014.6
20260507160714 61 267 6.0 19.0 0.00 0.00 0.00 27 1014.6
20260507160222 61 154 7.0 19.0 0.00 0.00 0.00 27 1014.7
20260507155707 61 243 8.0 23.0 0.00 0.00 0.00 27 1014.6
20260507155212 61 206 8.0 23.0 0.00 0.00 0.00 28 1014.6
20260507154712 61 259 7.0 23.0 0.00 0.00 0.00 28 1014.5
20260507154206 61 199 8.0 23.0 0.00 0.00 0.00 27 1014.5
20260507153714 61 209 8.0 21.0 0.00 0.00 0.00 29 1014.5
20260507153223 60 152 7.0 21.0 0.00 0.00 0.00 29 1014.5
20260507152706 60 272 7.0 17.0 0.00 0.00 0.00 29 1014.6
20260507152200 60 244 8.0 19.0 0.00 0.00 0.00 29 1014.6
20260507151702 59 265 8.0 19.0 0.00 0.00 0.00 30 1014.6
20260507151147 59 222 8.0 19.0 0.00 0.00 0.00 30 1014.6
20260507150630 59 157 7.0 19.0 0.00 0.00 0.00 30 1014.6
20260507150119 58 151 6.0 24.0 0.00 0.00 0.00 32 1014.7
20260507144939 57 261 8.0 24.0 0.00 0.00 0.00 34 1014.7
20260507143158 56 251 7.0 22.0 0.00 0.00 0.00 35 1014.8
20260507142709 56 261 8.0 22.0 0.00 0.00 0.00 34 1014.8
20260507142208 57 169 7.0 15.0 0.00 0.00 0.00 34 1014.8
20260507141653 56 145 8.0 16.0 0.00 0.00 0.00 34 1014.8
20260507141140 56 150 8.0 16.0 0.00 0.00 0.00 35 1014.8
20260507140634 56 211 8.0 22.0 0.00 0.00 0.00 37 1014.7
20260507140143 56 94 8.0 22.0 0.00 0.00 0.00 38 1014.8
20260507135639 56 253 8.0 22.0 0.00 0.00 0.00 39 1014.8
20260507135135 55 280 7.0 22.0 0.00 0.00 0.00 39 1014.8
20260507134635 55 174 7.0 16.0 0.00 0.00 0.00 40 1014.9
20260507134144 55 259 6.0 14.0 0.00 0.00 0.00 41 1014.9
20260507133026 55 183 7.0 24.0 0.00 0.00 0.00 40 1014.8
20260507132508 55 252 7.0 24.0 0.00 0.00 0.00 38 1014.8
20260507131955 55 247 7.0 18.0 0.00 0.00 0.00 36 1014.9
20260507130826 54 178 7.0 17.0 0.00 0.00 0.00 34 1014.8
20260507130322 54 221 6.0 17.0 0.00 0.00 0.00 34 1014.8
20260507125825 54 193 5.0 15.0 0.00 0.00 0.00 34 1014.9
20260507125308 54 230 5.0 15.0 0.00 0.00 0.00 35 1014.9
20260507124818 54 175 5.0 15.0 0.00 0.00 0.00 35 1014.9
20260507123701 54 258 5.0 20.0 0.00 0.00 0.00 36 1015.0
20260507123155 54 218 5.0 20.0 0.00 0.00 0.00 36 1014.9
20260507122705 54 199 5.0 20.0 0.00 0.00 0.00 37 1015.0
20260507122210 53 234 5.0 20.0 0.00 0.00 0.00 37 1014.8
20260507121704 53 249 5.0 15.0 0.00 0.00 0.00 39 1014.9
20260507121149 53 253 5.0 16.0 0.00 0.00 0.00 41 1015.0
20260507120027 53 263 5.0 16.0 0.00 0.00 0.00 40 1014.7
20260507115528 53 268 5.0 16.0 0.00 0.00 0.00 38 1014.7
20260507113126 54 238 6.0 14.0 0.00 0.00 0.00 36 1015.0
20260507112626 54 148 5.0 13.0 0.00 0.00 0.00 35 1015.0
20260507112120 54 148 5.0 13.0 0.00 0.00 0.00 34 1015.2
20260507111624 54 267 4.0 13.0 0.00 0.00 0.00 34 1015.3
20260507111122 54 157 4.0 11.0 0.00 0.00 0.00 34 1015.3
20260507110618 54 198 4.0 17.0 0.00 0.00 0.00 35 1015.3
20260507110122 54 194 5.0 17.0 0.00 0.00 0.00 35 1015.3
20260507105613 54 232 5.0 17.0 0.00 0.00 0.00 35 1015.3
20260507105055 54 251 6.0 17.0 0.00 0.00 0.00 35 1015.3
20260507104544 54 168 5.0 15.0 0.00 0.00 0.00 35 1015.3
20260507104028 54 177 4.0 15.0 0.00 0.00 0.00 35 1015.3
20260507102922 54 177 4.0 13.0 0.00 0.00 0.00 35 1015.3
20260507102418 55 220 4.0 17.0 0.00 0.00 0.00 35 1015.4
20260507101908 55 237 4.0 17.0 0.00 0.00 0.00 35 1015.4
20260507101411 55 193 5.0 17.0 0.00 0.00 0.00 35 1015.5
20260507100910 55 260 5.0 17.0 0.00 0.00 0.00 35 1015.5
20260507100357 55 135 6.0 15.0 0.00 0.00 0.00 35 1015.4
20260507095840 55 268 6.0 15.0 0.00 0.00 0.00 35 1015.5
20260507095337 55 156 5.0 14.0 0.00 0.00 0.00 36 1015.5
20260507094827 55 166 6.0 13.0 0.00 0.00 0.00 36 1015.6
20260507094313 55 182 6.0 14.0 0.00 0.00 0.00 37 1015.7
20260507093813 55 171 6.0 14.0 0.00 0.00 0.00 37 1015.8
20260507093255 54 246 6.0 14.0 0.00 0.00 0.00 37 1015.9
20260507092118 54 203 5.0 13.0 0.00 0.00 0.00 37 1016.1
20260507091626 55 264 5.0 13.0 0.00 0.00 0.00 37 1016.1
20260507090440 55 216 4.0 13.0 0.00 0.00 0.00 36 1016.2
20260507085923 55 256 4.0 13.0 0.00 0.00 0.00 35 1016.2
20260507084755 55 204 5.0 11.0 0.00 0.01 0.00 35 1016.4
20260507084238 54 255 4.0 11.0 0.00 0.02 0.00 35 1016.4
20260507083724 55 201 3.0 11.0 0.00 0.04 0.00 36 1016.4
20260507083230 55 206 4.0 11.0 0.00 0.06 0.00 36 1016.4
20260507082730 55 212 4.0 14.0 0.00 0.08 0.00 36 1016.5
20260507082238 55 180 4.0 14.0 0.00 0.15 0.00 36 1016.5
20260507081729 55 241 4.0 14.0 0.00 0.16 0.00 37 1016.7
20260507081233 55 166 4.0 14.0 0.00 0.16 0.00 37 1016.6
20260507080729 55 184 4.0 12.0 0.00 0.16 0.00 38 1016.7
20260507080217 55 165 4.0 11.0 0.00 0.16 0.00 39 1016.7
20260507075046 55 177 5.0 12.0 0.00 0.16 0.00 41 1016.8
20260507074536 54 182 4.0 13.0 0.00 0.16 0.00 41 1016.8
20260507074027 54 175 3.0 14.0 0.00 0.16 0.00 40 1016.8
20260507073521 54 169 3.0 14.0 0.00 0.16 0.00 39 1016.8
20260507073009 55 174 4.0 14.0 0.00 0.16 0.00 38 1016.8
20260507072504 55 251 4.0 14.0 0.00 0.16 0.00 38 1016.9
20260507071947 55 245 4.0 12.0 0.00 0.16 0.00 37 1017.0
20260507071452 55 162 4.0 12.0 0.00 0.16 0.00 37 1017.0
20260507070949 54 251 3.0 11.0 0.00 0.16 0.00 36 1017.0
20260507070456 54 230 2.0 8.0 0.00 0.16 0.00 36 1017.1
20260507065955 54 253 1.0 8.0 0.00 0.16 0.00 35 1017.1
20260507065457 54 259 1.0 7.0 0.00 0.16 0.00 36 1017.1
20260507064945 54 247 1.0 7.0 0.00 0.16 0.00 37 1017.1
20260507063836 53 235 0.0 6.0 0.00 0.16 0.00 40 1017.2
20260507063344 53 241 1.0 6.0 0.00 0.16 0.00 40 1017.3
20260507062851 53 225 0.0 6.0 0.00 0.16 0.00 41 1017.3
20260507062342 52 246 0.0 3.0 0.00 0.16 0.00 41 1017.3
20260507061215 51 252 0.0 0.0 0.00 0.16 0.00 41 1017.4
20260507060658 51 241 0.0 0.0 0.00 0.16 0.00 42 1017.3
20260507060140 51 251 0.0 0.0 0.00 0.16 0.00 42 1017.3
20260507055639 51 251 0.0 0.0 0.00 0.16 0.16 41 1017.4
20260507055148 51 250 0.0 0.0 0.00 0.16 0.16 41 1017.3
20260507054642 52 245 0.0 0.0 0.00 0.16 0.16 40 1017.3
20260507054134 52 234 0.0 1.0 0.00 0.16 0.16 39 1017.2
20260507053617 52 206 1.0 4.0 0.00 0.16 0.16 39 1017.2
20260507053126 52 206 1.0 3.0 0.00 0.16 0.16 40 1017.2
20260507052624 51 224 0.0 3.0 0.00 0.16 0.16 41 1017.3
20260507052114 51 61 0.0 1.0 0.00 0.16 0.16 42 1017.3
20260507051622 51 61 0.0 0.0 0.00 0.16 0.16 43 1017.3
20260507051108 51 61 0.0 0.0 0.00 0.16 0.16 43 1017.2
20260507050604 51 303 0.0 0.0 0.00 0.16 0.16 43 1017.3
20260507044816 52 303 0.0 0.0 0.00 0.16 0.16 39 1017.5
20260507044320 52 303 0.0 0.0 0.00 0.16 0.16 39 1017.5
20260507043820 52 303 0.0 0.0 0.00 0.16 0.16 39 1017.5
20260507043322 52 303 0.0 0.0 0.00 0.16 0.16 38 1017.3
20260507042823 52 303 0.0 0.0 0.00 0.16 0.16 38 1017.3
20260507042322 53 303 0.0 0.0 0.00 0.16 0.16 37 1017.3
20260507041824 53 303 0.0 0.0 0.00 0.16 0.16 37 1017.3
20260507041310 54 304 0.0 0.0 0.00 0.16 0.16 35 1017.3
20260507040819 54 270 0.0 0.0 0.00 0.16 0.16 35 1017.2
20260507040300 54 270 0.0 0.0 0.00 0.16 0.16 35 1017.3
20260507035804 54 270 0.0 0.0 0.00 0.16 0.16 35 1017.3
20260507035307 54 261 0.0 1.0 0.00 0.16 0.16 34 1017.3
20260507034128 55 271 0.0 0.0 0.00 0.16 0.16 35 1017.3
20260507033631 55 271 0.0 0.0 0.00 0.16 0.16 34 1017.3
20260507033120 55 271 0.0 0.0 0.00 0.16 0.16 34 1017.2
20260507032628 55 268 0.0 0.0 0.00 0.16 0.16 33 1017.1
20260507032115 55 263 0.0 0.0 0.00 0.16 0.16 33 1017.1
20260507031557 55 256 0.0 0.0 0.00 0.16 0.16 33 1016.9